Vertical_Velocity
-6 1 -11 4 13 -5 8 5 1 -10 17 0 5 1 15 -2 -0 3 2 -5 -0 10 3 5 -3 -0 -0 -2 -3 -2 2 -1 -4 -4 -6 -2 -0 1 1 2 10 4 4 10
27 -30 -7 18 7 17 9 15 -13 -12 10 13 4 -1 -2 -2 -3 2 7 16 4 -3 9 3 -0 -1 -2 -3 -4 -4 -3 -0 0 -5 -5 -4 -4 2 -1 0 -1 3 3 -1
8 -30 1 6 -5 -5 -6 -4 2 -10 -12 10 8 -8 2 -2 4 17 -5 13 -0 6 4 3 2 0 -0 -1 -1 -2 -1 -0 -4 -5 -4 -1 0 0 4 7 -3 -1 -9 4
-7 14 1 -3 -5 2 -11 -5 8 -1 22 -5 31 -22 11 23 0 -5 7 -6 5 5 2 -1 -0 -3 -3 -2 -3 -3 -1 -1 -2 -3 -3 0 1 -0 8 3 -1 -10 4 2
-28 4 -2 -1 -7 19 -18 5 -6 1 -3 29 -4 16 -10 1 4 2 1 11 -0 2 1 -2 -2 -4 -4 -4 -3 -1 -1 -2 -1 -3 -5 -3 -1 -2 6 9 6 -21 -1 3
-12 0 -6 -6 4 -3 -2 -10 2 2 12 21 -28 26 -14 -4 0 -2 18 6 1 2 -1 -4 -3 -6 -3 -4 -4 -3 -1 -4 -4 -4 -1 -4 -1 3 -3 6 5 -14 -10 5
3 -3 -3 -8 1 4 0 1 0 6 11 -11 11 24 -53 -10 43 25 18 -12 3 3 -3 -1 1 2 -0 -0 0 -2 -4 1 -1 -0 -1 -0 -1 -1 0 0 5 17 -4 -3
5 11 -7 -10 -23 -11 -11 -13 -5 -3 -2 -9 2 -7 24 8 16 -8 0 -3 3 0 -3 2 -0 -2 -2 -0 -1 1 -1 -3 -3 1 1 -0 1 -3 1 3 12 -1 -12 8
4 -0 2 5 5 22 -10 15 -26 14 -0 11 -6 17 -4 -8 -1 1 -5 -2 1 -3 0 1 1 -3 -4 0 -2 -1 -3 -3 1 -1 -2 2 1 1 -0 3 4 -4 -3 2
-14 12 11 16 2 1 12 6 28 9 3 1 0 4 7 -1 4 3 1 1 -2 -2 -0 -0 1 -2 -4 -3 -5 -3 -4 -5 -4 1 -5 4 3 3 -2 8 12 2 3 -2
-3 10 -4 -1 7 13 21 -3 -5 8 12 5 -1 7 0 20 18 8 3 1 -4 -3 -2 -5 -3 -6 -7 -4 -4 -4 -3 -2 -0 -1 -3 2 5 3 9 -30 20 -2 7 11
-1 -0 4 -1 -12 -6 -4 8 -7 3 1 -5 7 6 15 6 -6 -4 -1 -6 -3 -5 -6 -1 -6 -7 -4 -3 -4 -3 0 -3 -5 -5 -0 1 2 1 -1 16 2 1 1 23
-2 -5 8 6 3 0 -1 -0 -1 1 1 -6 12 8 -0 -6 1 23 19 -7 -2 -4 -4 -6 -5 -3 -3 -2 -1 2 1 -6 -0 -5 -3 -1 1 1 -0 -2 -0 2 2 10
-1 -3 8 3 6 9 0 -3 -3 -3 -2 -7 -5 14 13 16 3 6 11 -6 -3 -5 -5 -4 -3 -3 -1 -1 -0 -0 -0 -6 -3 -2 -3 -7 -3 0 5 2 3 6 -0 5
-2 -5 -3 1 1 -1 -1 3 1 1 -3 4 -7 5 6 10 -2 -4 -6 -6 -1 -1 -1 -2 -2 -2 -1 -0 -1 -4 -3 -5 -1 -5 1 -14 -2 7 -13 3 40 0 15 3
1 2 -3 1 -1 -2 -2 -2 -2 -3 -1 -0 2 -4 8 -2 4 -11 -1 -0 -4 -5 -0 -0 -1 -2 1 -0 -2 -2 -0 -2 -1 -2 -2 -3 6 -1 8 6 18 -18 11 57
-1 0 -1 2 -6 -1 2 8 5 2 3 12 9 16 -6 -4 2 -1 -5 -3 -3 -1 -1 -2 -1 -1 -1 -1 -0 2 -1 1 -2 -2 -1 3 -3 6 -1 7 4 -25 15 -1
-2 0 -3 5 -3 5 2 -4 -3 -4 -1 -5 -3 -8 -14 -7 -4 -4 -3 -1 1 -0 0 0 -0 -1 -0 -0 3 -1 0 4 -3 -5 -2 2 1 -1 -2 5 7 8 1 1
2 1 2 0 -2 5 -1 -4 -4 -1 4 -1 -1 -1 -3 0 -4 0 -2 -2 -2 -1 -0 1 -0 1 1 4 -0 0 4 -2 -1 1 -0 0 3 4 4 -2 -0 2 0 1
-2 -2 1 -0 3 1 2 -3 -2 -2 5 -1 -0 0 2 1 1 -5 -2 -2 1 3 3 1 2 3 2 3 2 2 -1 0 2 1 -3 -2 -1 1 2 1 1 -2 -1 2
-1 -1 -2 -4 0 0 -0 0 -3 -0 3 -1 -2 -2 1 -1 -1 -2 -0 1 1 3 2 2 -0 4 4 3 -0 1 -1 3 -1 -0 1 -0 1 0 -1 -1 1 -2 -2 3
-5 -1 -7 5 1 6 -2 -5 -2 -0 -1 -1 0 -0 -1 2 0 -1 1 1 1 1 0 1 3 4 2 2 1 1 3 -1 -3 -2 0 0 -0 0 -0 0 -2 1 3 2
-1 -2 4 -2 -1 -2 -2 -4 -2 -1 -1 -1 -1 -1 -1 -0 1 1 -0 -1 -0 1 3 3 3 1 2 1 1 1 1 0 1 0 1 -0 -1 -1 -1 -1 2 -0 -2 -3
-3 -1 -4 -2 -3 -2 -4 -2 -1 -2 -1 -2 -1 -0 -1 -0 -1 -1 -1 1 2 3 2 1 0 1 0 -0 1 2 2 2 0 0 -0 -1 -1 -0 -1 -1 -2 -1 0 -1
-1 -3 -3 -3 -1 -2 -2 -2 -1 -2 -3 -2 -2 -1 -2 -1 1 1 1 1 1 1 1 -0 -0 -0 1 1 0 -0 -1 -0 0 -0 -0 0 -0 -0 -1 -0 -0 -1 -3 -4
-1 -1 -1 4 -1 -3 -3 -3 -2 -3 -2 -2 -1 1 0 1 1 -0 -1 -3 -3 -3 -1 -1 -1 -2 -1 1 1 -1 0 1 1 0 1 -1 -1 -1 -0 -2 -3 -3 -3 -1
Height
3056 3055 3046 3053 3052 3052 3052 3052 3048 3046 3046 3046 3045 3043 3045 3047 3047 3049 3050 3052 3055 3057 3054 3051 3047 3048 3049 3048 3049 3050 3051 3050 3051 3052 3053 3054 3054 3055 3056 3058 3062 3064 3069 3071
3051 3041 3041 3048 3049 3048 3048 3045 3043 3044 3043 3042 3041 3037 3037 3038 3040 3042 3044 3046 3049 3050 3050 3045 3044 3044 3043 3043 3042 3042 3042 3043 3042 3041 3040 3040 3040 3042 3043 3043 3048 3053 3056 3058
3039 3035 3039 3039 3039 3040 3040 3041 3041 3041 3039 3036 3036 3029 3028 3028 3032 3036 3037 3040 3042 3045 3043 3041 3040 3039 3038 3037 3036 3034 3032 3031 3031 3030 3027 3026 3027 3029 3032 3033 3034 3039 3044 3048
3031 3031 3034 3032 3029 3032 3033 3035 3037 3037 3036 3028 3028 3018 3016 3015 3024 3028 3032 3034 3038 3039 3036 3036 3036 3035 3033 3031 3029 3026 3023 3021 3017 3016 3015 3012 3012 3014 3019 3024 3025 3031 3034 3037
3019 3024 3024 3022 3019 3030 3025 3031 3031 3033 3030 3024 3019 3017 3011 3012 3019 3024 3027 3031 3032 3030 3031 3031 3031 3029 3027 3024 3021 3017 3013 3009 3007 3003 3000 2998 2998 3001 3005 3011 3016 3019 3023 3027
3016 3016 3015 3016 3022 3021 3024 3024 3026 3025 3024 3017 3014 3013 3006 3008 3012 3019 3023 3025 3026 3026 3026 3027 3026 3024 3021 3017 3013 3008 3004 3000 2996 2992 2989 2988 2987 2991 2994 2998 3004 3007 3013 3018
3013 3011 3012 3014 3016 3018 3020 3024 3023 3019 3016 3008 3005 3006 3009 3007 3010 3014 3015 3020 3021 3021 3022 3023 3021 3018 3015 3011 3006 3002 2997 2992 2988 2984 2981 2980 2979 2980 2983 2986 2991 2998 3002 3007
3007 3006 3005 3007 3008 3011 3012 3017 3015 3007 3009 3004 3002 3003 3005 3007 3005 3009 3010 3015 3016 3017 3019 3017 3015 3012 3009 3004 3000 2995 2991 2986 2980 2977 2974 2973 2973 2974 2974 2978 2983 2989 2993 2998
3003 3000 3000 3004 3007 3010 3009 3008 3009 3006 3004 3000 2998 3000 3002 3005 3006 3007 3010 3013 3012 3013 3014 3012 3009 3005 3002 2999 2994 2989 2985 2980 2974 2971 2969 2966 2966 2966 2967 2970 2976 2982 2986 2990
3000 3000 3000 3002 3005 3006 3006 3006 3009 3009 3001 2991 2987 2991 2991 3001 3005 3007 3009 3008 3008 3008 3008 3006 3003 3000 2996 2993 2989 2984 2979 2974 2969 2967 2965 2962 2961 2960 2961 2965 2970 2975 2980 2982
2998 3000 3001 3001 3001 3000 3002 3000 3003 3002 3001 2994 2990 2991 2996 2997 3002 3007 3007 3003 3003 3004 3003 3001 2998 2994 2991 2987 2983 2979 2974 2970 2965 2963 2961 2959 2958 2958 2959 2961 2965 2968 2973 2976
2997 2998 2997 2998 2997 2999 3000 2999 2999 3000 2998 3000 2996 2996 2995 2999 3002 3005 3004 3001 3000 2999 2999 2996 2993 2989 2985 2982 2978 2974 2969 2965 2960 2958 2956 2955 2954 2953 2956 2957 2958 2961 2966 2968
2993 2995 2995 2996 3000 2998 2998 2999 2999 2999 2998 2996 2998 2997 2997 3000 3003 3005 3003 2996 2996 2994 2993 2991 2988 2984 2981 2978 2973 2968 2964 2959 2956 2953 2952 2950 2949 2948 2949 2951 2953 2955 2958 2961
2989 2991 2991 2991 2991 2991 2995 2996 2998 2999 2999 2997 2995 2996 2998 3001 3000 3000 2995 2992 2990 2987 2986 2985 2982 2979 2977 2973 2968 2963 2959 2955 2951 2948 2946 2946 2944 2943 2944 2944 2944 2948 2951 2952
2988 2989 2990 2990 2990 2990 2992 2993 2994 2994 2995 2995 2997 2998 2997 2997 2994 2989 2989 2987 2985 2982 2981 2979 2977 2975 2973 2969 2966 2961 2956 2952 2948 2945 2941 2939 2936 2935 2934 2935 2927 2940 2942 2942
2985 2987 2988 2989 2989 2989 2989 2990 2990 2991 2992 2993 2994 2995 2990 2989 2987 2983 2983 2982 2980 2978 2976 2974 2973 2971 2969 2966 2962 2958 2953 2950 2946 2943 2939 2937 2934 2931 2931 2931 2930 2931 2936 2935
2984 2986 2987 2986 2987 2988 2988 2987 2987 2988 2989 2989 2990 2989 2983 2982 2982 2981 2979 2979 2976 2974 2972 2971 2970 2968 2966 2964 2960 2957 2952 2948 2946 2942 2938 2934 2932 2929 2926 2925 2926 2927 2930 2934
2982 2983 2985 2984 2987 2985 2984 2983 2983 2984 2984 2984 2984 2982 2980 2980 2978 2977 2976 2974 2973 2971 2970 2969 2967 2966 2964 2961 2958 2955 2951 2950 2947 2943 2938 2933 2930 2928 2925 2922 2922 2924 2926 2927
2980 2982 2983 2984 2982 2983 2983 2982 2981 2981 2982 2979 2979 2978 2977 2976 2974 2973 2972 2972 2971 2970 2969 2967 2966 2965 2962 2960 2958 2955 2953 2951 2948 2943 2939 2934 2931 2927 2925 2923 2921 2921 2920 2920
2977 2979 2982 2982 2980 2978 2981 2980 2979 2979 2979 2975 2975 2974 2974 2973 2974 2971 2972 2971 2969 2969 2967 2966 2965 2963 2961 2959 2958 2956 2955 2953 2949 2945 2940 2936 2933 2930 2927 2924 2922 2920 2920 2919
2977 2978 2979 2979 2979 2979 2978 2978 2978 2980 2980 2973 2972 2969 2967 2968 2971 2971 2970 2969 2968 2967 2967 2966 2965 2963 2961 2960 2959 2958 2956 2954 2950 2947 2944 2941 2938 2934 2930 2928 2926 2924 2923 2921
2975 2976 2977 2977 2977 2977 2976 2977 2978 2976 2972 2971 2968 2966 2965 2967 2969 2969 2969 2968 2968 2968 2967 2967 2965 2964 2964 2962 2961 2960 2958 2955 2953 2950 2948 2945 2942 2938 2936 2933 2931 2929 2927 2926
2974 2973 2973 2975 2975 2975 2974 2974 2973 2972 2971 2969 2968 2967 2966 2967 2968 2968 2969 2969 2969 2968 2968 2967 2966 2966 2966 2965 2963 2961 2959 2956 2954 2952 2949 2947 2944 2941 2940 2938 2935 2934 2932 2931
2969 2970 2971 2974 2974 2973 2973 2973 2972 2972 2971 2970 2970 2969 2968 2969 2969 2970 2970 2970 2970 2970 2970 2970 2970 2969 2968 2966 2964 2962 2960 2958 2956 2954 2952 2950 2948 2945 2943 2941 2939 2937 2935 2933
2970 2970 2970 2971 2971 2973 2972 2973 2972 2973 2973 2972 2972 2972 2972 2973 2973 2973 2973 2973 2973 2973 2973 2972 2971 2970 2969 2967 2965 2964 2962 2961 2959 2956 2954 2952 2950 2947 2945 2943 2941 2939 2937 2936
2968 2968 2970 2971 2970 2972 2972 2973 2973 2974 2974 2974 2974 2974 2974 2975 2975 2975 2976 2976 2976 2976 2975 2974 2973 2972 2970 2968 2967 2964 2962 2961 2959 2957 2955 2953 2951 2949 2947 2945 2942 2940 2938 2937